Theta_e
319 319 319 319 319 320 321 322 324 324 325 326 326 323 324 325 320 320 328 332 330 326 323 320 318 318 316 316 315 314 314 314 314 314 313 313 313 313 313 313 313 313 313 314 316 316 317 318 318 318 319 320 322 323 322 322 323 324 324 325 325 325 325 325 325 324 323 322 322 323 323 322 321 321 322 322 323 322 322 321 320 319 318 318 319 320 320
319 319 319 319 319 320 320 321 321 322 324 325 325 326 326 326 325 326 329 329 325 320 318 316 315 314 314 314 313 313 313 313 313 312 312 313 312 311 311 311 311 310 310 312 313 313 314 314 314 315 316 317 318 319 321 321 322 322 323 323 323 323 323 323 323 323 322 321 321 321 321 321 319 319 319 320 320 320 321 322 321 320 319 318 319 319 320
319 319 319 319 319 321 321 320 319 321 322 323 323 323 324 326 328 328 327 325 320 315 313 313 312 312 313 313 312 311 311 311 311 311 311 311 311 310 310 310 310 308 308 309 310 310 311 312 312 313 313 313 314 314 316 318 319 320 321 322 322 322 322 322 322 323 322 321 321 320 320 319 319 318 318 318 318 317 318 319 319 319 320 319 319 318 318
320 319 320 320 320 321 321 320 318 318 320 321 320 320 321 324 326 325 324 324 319 314 312 312 312 312 312 311 310 310 309 309 309 309 309 309 309 309 309 308 308 306 306 307 307 308 309 309 310 310 310 310 310 311 312 313 315 317 318 319 320 321 321 321 321 321 321 320 319 319 319 318 318 318 318 317 316 316 316 317 317 318 319 318 318 317 317
320 320 320 319 319 321 321 318 314 315 318 319 319 318 319 321 323 323 323 321 316 312 311 311 310 310 310 309 309 308 308 308 307 306 306 306 307 307 306 306 306 305 305 305 305 305 306 306 307 308 308 307 307 308 309 310 312 313 313 314 316 318 319 320 321 321 320 319 320 319 319 319 318 318 318 316 315 314 315 315 315 317 318 318 317 317 318
320 320 319 318 319 321 319 313 312 313 316 317 318 317 317 318 319 319 318 315 312 311 311 310 309 308 308 307 306 306 307 307 306 306 305 304 304 304 304 304 305 305 304 304 304 304 304 304 304 305 306 306 306 306 307 308 309 309 308 309 311 314 315 316 319 321 321 320 320 320 320 320 319 318 318 317 315 315 316 315 315 317 318 318 317 318 318
319 318 319 321 322 319 314 311 311 311 312 314 315 314 313 315 316 316 314 312 311 311 310 308 307 307 306 305 305 305 305 305 305 305 304 303 303 303 303 303 303 304 303 303 303 303 302 302 302 303 304 304 305 305 306 307 307 307 307 307 308 310 312 312 314 317 319 319 320 320 320 320 319 319 319 318 316 315 317 316 317 318 318 318 318 318 318
317 318 319 321 319 314 311 311 310 310 311 313 314 314 313 312 313 314 312 310 309 308 307 307 307 306 305 305 305 304 304 304 304 303 303 302 302 302 302 302 302 302 302 302 302 302 302 301 301 301 302 302 303 303 304 304 305 305 305 305 305 306 308 309 310 313 314 315 316 318 319 319 319 319 319 319 318 317 318 318 318 319 319 319 319 320 319
316 318 318 317 316 314 313 312 310 308 310 311 312 315 313 310 311 312 310 308 308 307 306 306 307 306 306 305 305 304 303 303 303 302 302 302 302 302 302 302 302 302 301 301 301 301 301 301 301 300 300 300 301 301 302 303 303 303 303 302 303 303 304 306 307 309 311 312 312 313 316 318 318 317 318 319 319 320 320 320 320 320 320 320 320 321 321
316 317 317 316 317 317 314 311 309 307 308 307 309 313 314 310 310 310 309 308 307 307 307 307 308 308 307 306 305 304 303 303 302 302 302 302 301 301 301 301 301 301 301 300 300 300 301 301 300 300 300 300 299 299 300 301 301 302 301 301 301 301 302 303 304 305 308 309 309 310 312 314 315 315 316 317 318 319 320 321 320 320 320 320 320 320 320
315 317 317 317 318 316 311 309 307 306 307 307 309 314 316 312 309 309 308 308 307 307 307 307 308 310 308 306 304 302 302 302 302 302 301 301 300 300 300 300 300 299 299 299 299 299 300 300 300 299 300 300 299 299 300 300 300 301 301 300 300 300 301 302 302 303 305 306 306 307 308 309 310 311 312 314 315 315 315 316 317 317 319 319 318 318 318
315 316 316 315 314 312 309 307 307 306 306 307 312 318 318 311 308 308 308 307 307 307 307 307 307 308 307 305 302 301 301 301 301 301 301 300 300 299 299 299 298 298 298 298 297 298 298 299 299 299 300 300 299 299 300 300 300 300 300 300 300 300 300 301 301 302 303 303 304 305 305 306 307 308 309 311 314 313 312 313 313 313 314 314 313 313 313
315 315 316 314 311 309 307 306 306 306 308 311 315 317 314 309 308 308 306 306 306 305 305 305 304 303 303 302 300 300 300 300 299 299 300 299 299 298 298 298 298 297 297 297 297 297 297 298 298 298 299 299 299 299 299 299 299 299 299 299 299 299 300 300 301 301 302 303 303 304 304 305 306 306 307 308 310 310 310 310 310 310 310 310 310 309 309
311 312 314 314 311 307 304 305 306 307 311 315 314 311 309 308 307 306 306 306 306 305 304 303 301 300 299 298 299 299 299 299 298 298 298 298 298 297 297 297 297 297 297 297 297 297 297 297 298 298 298 298 299 299 299 299 299 298 298 298 297 297 298 298 299 300 301 301 302 303 304 304 305 305 306 306 307 308 308 307 307 307 308 309 308 308 307
309 310 311 314 312 306 303 306 307 308 310 310 308 308 309 308 307 307 307 306 306 305 303 301 300 299 298 298 298 298 298 299 298 298 298 298 298 297 297 297 297 297 297 297 297 296 296 297 297 298 298 298 298 298 298 298 298 298 298 298 297 297 296 296 297 297 298 298 299 300 302 303 304 304 304 305 305 306 307 307 307 308 308 308 308 308 307
310 312 310 309 308 304 303 305 306 305 305 305 306 308 309 308 307 307 306 306 305 303 301 300 300 299 298 298 298 298 298 298 298 298 298 298 298 298 297 297 298 298 298 297 297 297 297 297 297 297 297 297 297 297 297 298 298 298 298 298 298 297 297 296 296 296 296 296 296 297 298 299 301 302 302 303 303 304 305 306 306 306 306 307 307 307 307
306 308 306 304 303 302 302 302 303 303 303 304 306 307 307 305 306 306 305 304 303 301 300 300 300 299 299 299 299 298 299 298 298 298 298 298 298 298 298 298 298 298 298 298 298 298 298 297 297 297 297 297 297 297 297 297 297 298 298 298 298 298 298 298 298 297 297 297 297 298 298 298 299 299 299 300 301 302 302 303 303 303 304 304 305 305 305
305 305 304 303 302 302 301 301 301 301 301 302 303 304 304 303 302 303 303 302 301 300 300 299 299 299 298 298 298 298 298 298 298 298 298 298 298 298 298 298 298 298 298 298 298 298 298 298 298 297 297 297 297 297 296 297 297 297 297 298 298 298 298 298 299 299 299 299 299 299 299 299 299 299 299 300 300 300 301 301 301 301 301 302 302 303 302
306 305 304 303 302 302 301 300 300 299 299 300 301 302 303 302 300 300 300 300 300 300 300 299 299 299 298 298 298 298 298 298 298 298 298 298 298 298 298 298 298 298 298 298 298 298 298 298 297 297 297 297 296 296 296 297 297 297 297 297 298 298 298 299 299 298 298 298 299 299 299 299 299 299 299 299 299 299 300 300 300 300 300 300 300 301 301
305 305 303 302 302 302 301 300 300 299 299 299 299 300 302 302 300 300 300 300 300 300 299 299 299 298 298 298 298 298 298 299 298 298 298 298 298 297 297 297 298 298 298 298 298 298 298 297 297 297 296 296 296 296 296 296 296 297 297 297 298 298 299 299 298 297 297 298 298 298 298 298 298 298 298 298 298 297 297 298 299 299 300 299 299 299 300
305 305 304 303 302 302 301 301 300 299 299 299 299 299 300 300 300 299 300 300 300 299 299 299 299 298 298 299 299 299 299 299 299 298 298 298 298 297 297 297 298 298 298 298 298 297 297 297 297 296 296 296 296 296 296 296 296 296 297 297 299 299 299 298 297 297 297 298 298 298 297 295 294 294 295 297 297 296 294 294 295 296 297 298 297 297 299
305 305 305 304 303 302 302 301 300 299 299 299 299 299 299 299 300 299 299 300 300 299 299 299 298 298 298 299 299 299 299 299 299 298 298 298 297 297 297 297 298 298 298 298 297 297 297 297 296 296 296 296 295 295 295 296 296 296 297 298 298 298 298 297 297 297 297 297 297 298 297 296 295 293 292 293 295 294 293 293 293 294 295 295 295 295 297
304 304 304 303 302 302 302 302 301 300 301 300 301 301 301 301 301 301 300 300 299 299 299 298 298 298 298 298 299 299 299 299 298 298 298 297 296 296 297 297 298 298 298 297 297 297 297 296 296 295 295 295 295 295 295 296 296 297 298 298 298 297 297 296 297 297 297 297 297 297 297 297 297 296 295 293 292 293 293 293 294 294 294 294 294 294 295
303 302 303 302 302 302 302 301 301 301 302 301 301 301 302 302 302 302 301 300 300 299 299 298 298 298 298 298 298 298 298 298 298 297 297 296 296 296 296 296 297 297 297 297 297 297 296 296 296 295 295 295 295 295 295 296 297 297 298 298 298 297 296 296 296 296 297 297 297 297 297 297 297 297 297 297 295 294 293 293 293 294 294 294 294 294 295
302 302 302 302 301 301 301 301 301 302 302 301 300 300 301 301 301 300 300 300 299 299 298 298 298 298 298 298 298 298 298 297 297 297 296 296 296 296 296 296 297 297 297 297 296 296 296 295 295 295 295 295 295 295 295 296 296 297 297 298 298 297 297 297 297 297 297 296 296 296 296 296 296 296 296 297 297 296 295 293 293 293 294 293 294 294 295
301 301 301 301 301 301 301 300 300 300 300 300 300 300 300 300 299 299 299 299 299 298 298 297 297 297 297 297 297 297 297 297 297 297 297 297 297 297 296 296 296 296 296 296 296 296 295 295 295 295 295 295 295 295 295 296 296 296 296 296 296 296 296 297 297 297 297 296 296 296 296 295 295 295 295 295 295 296 296 295 295 295 294 294 294 294 294
301 301 301 300 300 300 300 299 299 299 299 299 299 299 299 299 299 298 298 298 298 298 297 297 297 297 297 297 297 297 297 297 297 297 297 297 297 296 296 296 296 296 296 296 296 295 294 295 295 295 295 295 295 295 296 296 296 296 296 296 295 295 295 296 297 297 296 296 296 295 295 294 294 294 294 294 294 295 295 295 295 296 295 295 294 294 294
300 301 301 300 299 299 299 299 299 299 300 299 299 299 298 298 298 298 298 298 298 297 297 297 297 296 296 296 297 297 297 297 297 297 297 297 297 297 296 296 296 296 295 296 295 295 294 295 295 295 295 295 295 296 296 296 297 297 296 296 296 296 296 296 296 296 295 294 294 293 293 293 293 293 294 294 294 294 294 294 294 295 295 295 295 294 294
300 300 300 300 299 299 299 299 299 299 299 300 299 299 298 298 298 298 298 298 298 297 297 297 297 297 296 296 296 296 296 297 297 297 297 297 297 296 296 296 295 295 295 296 296 295 295 295 295 295 295 295 295 296 296 296 297 297 296 297 296 296 296 296 296 295 294 293 292 291 291 292 293 294 294 294 294 294 294 294 294 294 295 295 294 295 295
300 300 300 299 299 299 299 298 298 298 299 300 299 299 299 299 298 297 298 298 298 298 298 297 296 296 296 296 296 296 296 296 296 296 296 296 296 296 295 295 295 295 296 296 296 295 295 295 295 295 295 295 296 296 296 296 297 296 296 296 295 295 295 295 295 295 294 293 292 291 292 292 293 293 294 294 294 294 294 294 293 294 294 295 294 294 294
300 301 300 299 299 299 298 298 298 298 299 299 299 299 298 298 298 297 298 298 298 298 298 297 297 296 296 296 296 296 296 296 296 296 296 296 296 296 295 294 295 295 295 296 295 295 295 295 295 295 295 295 296 296 296 297 297 296 296 295 294 293 293 293 294 294 294 293 293 293 293 293 293 293 293 294 294 294 294 294 293 293 294 294 294 294 293
300 300 300 300 299 299 298 298 298 298 298 299 299 298 298 298 298 298 298 298 298 298 297 297 297 297 296 296 296 296 296 296 296 296 296 296 296 295 295 294 294 294 294 295 295 295 295 295 295 295 295 295 296 296 297 297 297 297 296 296 295 294 293 294 294 294 294 294 293 293 293 293 293 293 293 293 293 293 293 293 293 293 293 294 294 293 291
299 299 299 299 299 298 298 298 298 298 298 298 298 298 298 298 298 298 298 298 298 297 297 297 297 297 296 296 296 296 296 296 296 296 295 294 295 295 293 292 292 293 294 295 295 294 294 295 295 295 295 295 296 296 296 296 297 297 296 296 296 295 294 294 295 295 294 294 293 293 293 293 293 293 293 293 293 293 293 293 293 293 293 293 293 292 290
300 299 299 299 299 299 299 299 298 298 298 298 298 298 298 298 298 298 298 297 297 297 297 297 297 296 296 296 295 294 294 294 294 293 292 291 292 292 291 290 291 293 294 294 294 294 294 295 295 295 295 295 296 296 296 296 296 297 296 296 296 295 295 295 295 295 295 294 293 293 293 293 292 293 293 293 293 293 292 292 292 293 293 293 293 292 290
299 299 299 299 299 299 299 299 299 298 298 299 298 298 298 298 298 297 297 297 297 297 297 297 296 296 295 294 292 291 292 291 290 288 287 287 288 289 289 290 292 294 295 294 294 294 294 294 295 295 295 296 296 296 296 296 296 296 296 296 296 296 296 296 295 295 295 294 294 293 293 292 292 292 292 293 293 293 292 292 292 293 293 293 293 292 291
299 299 299 299 299 299 299 299 299 299 299 299 299 298 298 298 298 297 297 297 297 296 296 296 295 294 293 292 292 291 291 289 288 287 286 286 287 288 288 290 292 294 295 295 294 294 294 294 294 294 295 296 296 296 295 295 295 296 296 296 296 296 296 295 296 295 295 295 294 293 293 292 292 292 292 293 293 292 292 292 292 293 293 293 292 292 292
299 299 299 299 300 300 299 299 299 299 299 298 298 298 298 298 298 298 297 297 297 296 296 295 294 293 293 292 292 291 289 288 288 288 288 287 287 288 288 290 291 293 294 295 294 294 294 294 294 294 294 296 296 296 295 294 294 295 296 296 296 296 296 296 296 296 295 295 294 293 293 293 293 292 292 292 292 292 292 292 292 292 292 292 292 292 292
299 299 300 300 300 299 299 299 299 299 298 298 298 298 298 298 298 297 297 297 297 296 296 295 294 293 292 292 291 290 289 289 290 290 289 289 288 288 289 292 294 295 295 296 295 294 294 294 294 294 295 296 296 295 294 294 294 295 295 295 296 296 296 296 296 296 295 295 295 294 294 294 293 293 292 292 292 292 292 291 292 292 292 292 292 292 292
299 299 299 300 300 299 299 299 299 299 298 298 298 298 298 298 298 297 297 297 297 296 295 295 294 294 294 293 292 291 291 290 290 290 289 289 289 288 290 292 293 294 295 295 294 293 294 294 293 294 295 296 296 295 294 294 295 295 295 296 296 296 296 296 296 296 296 295 295 295 295 294 293 293 292 292 292 292 292 291 291 292 292 292 292 292 292
299 299 299 299 299 299 299 299 299 299 298 298 298 298 298 298 298 297 297 297 297 296 296 296 295 295 295 294 293 293 293 292 291 290 289 289 288 289 291 292 292 292 293 293 293 294 294 293 293 295 296 296 296 296 295 294 295 295 296 296 296 296 296 296 296 296 296 296 295 295 295 294 293 293 292 292 292 292 292 292 292 292 292 292 292 292 292
299 299 299 299 299 298 298 299 298 298 298 298 298 298 298 298 298 297 297 297 297 297 296 296 296 296 295 295 294 293 293 292 292 291 290 290 290 291 292 293 294 293 293 293 294 293 293 293 293 295 296 296 296 296 295 295 295 295 296 296 296 296 296 296 296 296 297 296 296 296 295 295 294 293 293 292 292 292 292 292 292 292 292 292 292 292 292
299 299 299 299 298 298 298 298 298 298 298 298 298 298 298 298 298 297 297 297 297 297 297 297 296 295 295 295 294 294 293 293 293 293 292 292 292 292 293 293 293 293 293 293 294 293 293 293 294 295 295 296 296 295 294 295 295 295 296 296 296 296 296 296 296 296 296 296 296 296 296 295 294 294 293 292 292 292 291 291 292 292 292 292 292 292 292
299 299 299 299 299 299 299 298 298 298 298 298 298 298 298 298 298 297 297 297 297 297 297 297 296 295 295 295 295 294 294 294 294 294 293 293 293 292 292 293 293 292 292 292 293 294 294 294 295 295 295 295 296 295 294 294 295 295 295 296 296 296 295 295 295 295 295 295 295 296 295 295 294 294 293 293 292 292 292 291 291 292 292 292 292 292 292
299 299 299 299 299 299 299 299 299 299 298 298 298 298 298 298 298 297 297 297 297 297 297 297 297 296 296 296 295 295 295 294 294 294 294 294 294 293 292 292 292 292 291 291 292 294 294 295 295 295 295 295 295 294 294 294 295 295 295 295 295 295 295 295 295 295 295 295 295 295 295 294 294 294 293 293 292 292 292 291 291 292 292 292 292 292 292
299 299 299 299 299 299 299 299 299 299 298 298 298 298 298 298 298 298 297 297 297 297 297 297 297 297 297 296 296 295 295 295 295 295 295 295 295 295 293 292 292 291 290 290 291 293 293 294 294 295 294 294 294 294 294 295 295 295 295 295 295 295 294 294 294 295 295 295 294 294 294 294 294 294 293 293 292 292 292 291 291 291 291 291 291 291 291
299 299 299 299 299 298 298 298 298 298 298 298 298 298 298 298 298 298 298 297 297 297 297 297 297 297 297 297 296 296 295 295 295 295 295 295 295 295 294 293 292 292 291 290 290 292 292 293 293 293 293 293 294 294 294 295 295 295 295 295 295 295 294 294 294 294 295 294 294 294 293 293 293 294 293 293 292 292 291 291 291 291 291 291 291 291 291
299 299 299 299 299 299 299 298 298 298 298 298 298 298 298 298 298 298 298 298 297 297 297 297 297 297 297 297 296 296 296 295 295 295 295 295 295 295 294 293 293 292 291 290 290 291 292 292 291 291 292 293 293 294 294 294 295 295 295 295 295 295 294 294 294 294 294 294 294 293 293 293 293 293 293 293 292 292 292 291 291 291 291 290 290 290 290
299 299 299 299 299 299 299 299 298 298 298 298 298 298 298 298 298 298 298 297 297 297 297 297 297 297 297 297 296 296 296 296 296 296 296 296 295 295 295 294 293 292 291 291 290 290 290 290 290 290 291 293 293 294 294 295 295 295 295 295 295 295 294 294 294 294 294 294 294 293 293 293 293 293 293 293 292 292 292 292 291 291 291 290 290 290 290
299 299 299 299 299 299 299 299 298 298 298 298 298 298 298 298 298 298 297 297 297 297 297 297 297 297 297 297 296 296 296 296 296 297 297 296 296 295 295 294 293 292 291 291 292 292 290 290 291 292 292 293 294 294 294 294 295 294 295 295 295 295 294 294 294 294 294 293 293 293 293 293 293 293 293 293 293 292 292 292 291 291 291 291 290 290 289
298 298 299 298 298 298 298 298 298 298 298 298 298 298 298 298 298 297 297 297 298 297 297 297 297 297 297 297 297 296 297 297 297 297 296 296 296 296 295 294 294 293 291 291 293 293 290 288 289 292 293 293 294 294 295 295 295 294 295 295 295 295 294 294 293 293 293 293 293 293 293 293 293 293 293 293 292 292 292 292 291 291 291 290 290 290 289
298 298 298 298 298 298 298 298 298 298 298 298 298 298 298 298 298 298 297 297 297 297 297 297 297 297 297 297 297 297 297 297 296 296 296 296 296 296 295 294 294 293 291 291 293 294 292 289 289 290 292 293 294 294 295 295 295 295 295 295 295 294 294 294 293 293 293 292 292 293 293 293 293 293 293 293 292 292 292 291 291 291 291 290 290 290 289
298 298 298 298 298 298 298 298 298 298 298 298 298 298 298 298 298 298 297 297 297 297 297 298 298 297 297 297 297 297 297 296 296 296 296 296 296 296 295 294 294 293 292 292 293 294 294 292 289 288 290 293 295 295 294 294 295 295 294 294 294 294 294 293 293 293 292 292 291 291 291 291 292 292 293 293 293 292 292 291 291 291 291 290 290 290 289
Wind_Speed
6 6 4 3 3 5 6 5 4 4 3 0 4 4 4 5 4 4 6 12 12 10 10 9 7 6 7 7 6 6 6 6 6 7 9 10 9 9 10 11 11 11 11 11 12 13 13 14 15 14 12 10 8 9 9 10 10 10 9 8 8 10 11 10 11 14 17 18 17 16 16 16 14 12 11 12 11 10 9 8 8 7 8 10 9 8 7
6 5 3 2 3 6 7 6 6 5 4 4 3 2 4 4 2 3 9 13 11 8 8 8 7 7 7 7 7 7 7 7 7 8 10 11 10 10 11 11 11 11 11 11 13 14 14 14 14 14 14 13 12 13 14 14 14 13 11 11 11 11 12 11 11 12 14 17 17 17 16 15 15 14 14 13 13 11 10 8 7 7 7 8 8 8 7
3 2 2 1 2 5 7 7 7 5 4 5 5 4 4 2 3 7 11 13 9 5 6 9 8 7 8 8 7 8 8 7 8 9 10 11 11 11 11 11 11 11 11 12 13 14 14 14 14 14 14 14 15 16 17 17 17 15 14 13 12 12 12 12 11 12 12 13 15 16 17 15 14 15 16 14 11 10 10 8 7 7 6 7 7 7 8
4 4 5 4 3 4 6 7 8 6 3 4 4 4 3 3 3 8 9 7 5 5 8 9 8 9 10 9 9 8 8 8 8 9 10 11 11 11 11 11 11 11 11 12 14 14 13 14 15 15 13 14 15 16 17 18 19 19 17 16 15 14 13 11 11 11 10 12 14 15 17 17 17 17 16 13 8 6 6 6 5 5 5 6 6 6 7
6 7 7 5 4 5 4 4 6 6 4 2 3 4 5 5 0 5 4 4 7 9 9 10 10 10 10 9 8 8 8 8 9 9 11 11 11 11 11 12 12 12 12 13 14 14 14 15 15 14 14 16 16 15 16 18 19 20 19 18 17 16 13 10 10 11 11 12 13 13 14 17 17 15 14 14 11 5 3 4 3 2 4 6 8 9 9
6 8 8 5 5 5 2 2 4 5 5 3 3 5 6 7 3 3 4 8 10 10 9 10 11 11 10 10 9 9 8 8 8 10 11 11 12 12 12 12 12 13 14 14 14 16 16 15 14 14 15 17 18 18 19 21 22 21 19 18 18 17 15 13 11 12 13 13 12 11 10 12 13 12 12 16 16 10 6 4 3 2 5 7 10 11 10
5 8 7 6 4 2 2 3 4 5 5 5 6 7 8 7 5 6 9 11 10 10 10 11 12 13 14 13 11 11 10 8 9 10 11 11 12 12 12 12 12 14 15 15 15 16 16 16 16 16 15 16 17 19 21 22 22 22 23 22 20 17 17 16 14 12 12 12 12 11 11 12 12 11 10 12 13 11 6 5 5 6 8 8 8 8 8
4 6 5 3 2 4 3 2 5 5 3 3 4 5 6 7 4 6 10 11 10 12 13 12 12 15 16 14 12 11 11 10 10 10 11 12 12 13 13 12 14 15 16 15 15 15 16 17 19 20 18 17 17 18 20 21 20 21 25 24 20 18 19 18 16 15 14 13 13 12 12 12 11 10 9 9 9 8 6 6 7 7 7 6 5 5 5
2 3 3 3 5 5 3 2 3 3 3 4 3 1 4 5 2 5 10 12 12 12 12 12 12 13 14 12 10 10 10 10 11 12 12 13 14 14 14 14 15 16 15 16 17 17 17 18 20 21 20 22 24 21 20 20 20 21 24 24 21 21 20 18 17 17 17 16 15 13 13 13 11 10 10 8 8 7 6 6 6 6 5 5 4 4 4
2 2 5 4 4 4 3 4 4 3 3 4 4 2 2 2 2 5 10 12 13 13 12 12 10 7 8 9 6 7 9 9 10 12 13 15 15 15 14 14 15 16 16 17 19 20 18 18 20 21 19 22 28 27 22 20 19 21 22 22 22 24 22 20 20 21 21 19 17 15 14 13 12 11 10 10 10 9 8 7 6 6 6 6 5 5 4
3 4 4 3 2 3 4 5 6 6 5 4 4 3 2 3 4 7 10 12 13 12 11 8 4 3 6 6 4 5 7 8 9 10 12 14 15 15 14 14 16 17 17 19 20 21 19 18 20 21 19 20 24 25 21 19 19 20 19 18 19 21 20 20 22 24 24 23 22 20 18 17 15 14 13 13 13 12 10 9 8 7 7 7 6 6 5
4 4 3 3 3 4 5 7 8 7 5 3 4 3 2 5 6 9 11 12 11 9 6 4 3 3 5 6 5 6 7 8 10 11 12 13 13 13 14 15 16 19 20 21 21 19 17 16 17 18 19 20 22 20 17 17 18 17 16 15 15 15 16 17 18 20 20 21 22 21 20 19 18 17 17 17 16 15 13 13 12 11 10 9 9 9 9
3 3 3 4 3 3 6 10 10 7 5 3 2 1 2 5 8 9 11 11 10 8 6 5 5 6 7 8 7 6 7 8 9 10 11 12 12 12 12 13 14 16 18 19 19 17 15 14 15 15 16 18 19 17 16 17 17 14 13 13 13 13 14 14 15 15 15 15 16 15 15 14 14 14 15 15 15 15 14 14 15 14 12 11 11 11 11
0 1 3 5 5 4 10 12 8 6 4 2 1 3 2 7 9 10 11 10 9 8 8 7 8 8 10 10 8 6 6 7 8 9 11 13 13 13 12 12 12 13 14 15 16 16 14 14 14 14 14 15 15 14 15 15 13 12 12 13 13 14 14 14 14 13 13 13 12 11 11 10 11 11 11 11 11 11 11 13 13 13 11 9 9 10 10
1 2 3 3 4 5 12 11 5 3 4 2 2 2 5 9 9 10 10 8 8 10 11 10 10 11 11 10 9 7 7 7 8 8 9 12 13 13 13 12 12 13 14 14 15 15 14 14 13 13 13 14 13 13 14 12 10 9 10 10 11 12 13 13 13 13 13 13 12 11 11 10 10 10 10 9 9 8 7 8 9 10 8 7 6 6 7
2 3 4 3 2 5 10 8 3 4 5 4 4 0 7 9 8 8 8 7 9 12 13 12 12 12 12 11 9 8 7 8 9 8 8 10 12 13 12 12 11 12 13 13 12 12 12 12 12 12 12 12 12 12 11 10 8 8 8 8 8 9 10 11 12 12 12 12 12 11 11 11 11 11 10 10 9 9 8 7 7 7 6 5 5 5 5
5 5 4 3 3 5 6 6 5 5 5 5 5 5 8 7 6 7 7 9 12 14 14 13 12 11 11 11 10 9 8 8 8 8 8 9 10 10 10 9 9 10 11 10 10 10 10 10 10 10 10 11 11 11 10 8 8 7 7 7 7 7 8 9 9 9 10 11 11 11 10 11 11 11 11 11 10 9 8 7 7 7 6 5 5 4 4
8 9 7 6 6 6 7 7 7 7 8 8 8 9 8 6 7 8 8 11 13 12 12 12 11 10 10 10 9 9 9 8 8 9 9 9 9 9 9 8 7 8 8 9 9 10 10 10 10 10 10 10 10 9 8 8 7 7 6 6 7 7 8 8 8 8 9 9 10 10 10 10 10 10 10 10 9 9 9 8 8 7 7 6 5 5 4
4 5 7 7 7 8 7 8 8 10 11 10 9 8 7 7 9 10 10 11 12 11 11 12 11 12 12 11 9 8 8 9 9 9 9 8 8 8 8 7 6 6 7 8 9 9 10 10 10 10 10 10 9 8 8 7 7 6 6 6 6 7 7 8 9 9 9 9 9 9 9 9 9 10 10 10 10 10 9 9 8 7 7 7 6 6 5
6 6 7 8 10 10 9 8 8 9 11 12 10 8 7 8 9 11 12 11 10 9 10 10 11 12 12 11 10 9 8 9 10 10 9 8 8 8 8 7 6 6 7 7 8 8 9 9 9 9 9 9 8 8 7 6 6 6 6 6 6 7 8 8 9 9 10 10 9 10 11 11 10 10 10 10 11 11 10 9 8 7 7 7 7 6 6
8 7 8 8 10 12 11 10 9 8 10 13 12 11 10 9 10 12 13 12 10 9 9 9 9 9 9 9 10 9 9 9 10 9 9 8 8 8 7 6 6 7 7 7 7 8 8 7 7 7 7 6 6 6 6 5 5 5 6 6 7 7 8 8 9 8 9 9 9 9 11 12 13 13 11 9 9 10 10 10 8 7 6 6 6 6 6
6 6 6 6 8 10 9 9 10 10 11 12 12 11 10 9 9 10 10 10 11 10 8 7 7 7 6 7 8 9 9 10 9 9 8 8 8 7 6 6 7 7 7 7 7 7 7 6 6 6 5 5 5 5 5 4 4 4 5 6 7 8 8 8 8 8 9 9 9 9 8 9 11 13 13 11 10 9 10 10 11 10 9 8 8 7 5
9 9 9 9 9 10 9 10 11 11 11 12 11 10 8 7 8 10 10 8 7 6 4 4 6 7 6 6 7 8 9 9 8 8 7 7 7 6 5 5 6 7 7 7 7 7 6 6 5 5 5 5 5 5 5 5 5 5 5 6 8 8 9 9 9 8 9 9 9 9 8 7 7 8 9 11 11 11 11 12 12 13 12 12 12 11 8
12 12 11 10 11 11 11 11 11 11 11 12 11 10 8 6 7 8 9 8 7 6 5 4 5 7 7 6 7 8 8 7 7 6 6 6 6 5 4 5 5 6 6 6 7 6 6 5 5 5 5 5 5 5 5 5 5 6 6 7 8 8 9 9 9 9 9 9 9 9 9 8 7 6 5 6 8 9 10 11 12 13 12 12 12 12 11
12 11 10 11 12 12 10 10 9 10 11 12 11 10 10 8 7 7 7 6 6 6 6 5 5 5 6 6 7 8 7 6 6 5 5 5 4 3 4 4 4 5 5 5 6 5 5 5 4 4 5 5 5 5 6 6 7 8 8 8 8 7 7 7 8 8 9 9 9 9 9 8 8 8 7 6 5 6 6 8 10 11 11 11 11 11 11
12 11 11 12 11 10 9 9 9 9 11 12 11 11 11 9 8 8 8 7 7 7 8 7 6 5 5 5 6 6 6 7 6 5 4 4 3 3 4 4 4 4 4 4 4 4 4 4 4 4 5 5 5 6 6 7 8 9 9 9 9 8 8 7 7 8 8 8 8 9 9 9 8 8 8 8 6 6 5 5 6 7 9 10 11 11 10
10 9 9 10 9 8 8 9 9 9 10 12 11 11 11 9 8 9 9 8 7 7 7 7 7 6 6 5 5 5 5 6 5 4 2 3 4 4 4 3 3 3 3 4 4 3 3 3 3 4 5 5 6 6 7 7 8 8 8 8 9 9 9 9 8 8 8 9 8 8 8 9 9 8 8 7 7 7 6 6 6 6 7 8 10 11 11
8 6 6 7 8 9 9 9 10 10 9 9 9 9 9 8 7 8 8 7 7 7 6 6 6 6 6 5 4 4 4 4 3 2 2 3 3 4 3 3 3 3 3 3 3 2 2 3 4 5 5 5 6 6 7 7 7 7 7 7 7 7 8 8 8 8 8 8 8 8 8 8 8 8 8 8 7 7 7 7 7 6 7 7 8 9 11
7 6 7 9 10 10 9 9 9 8 7 6 6 6 6 5 5 5 5 5 5 5 5 5 4 4 4 4 3 2 2 1 1 1 2 2 2 2 2 2 2 2 2 2 3 2 2 3 5 5 5 5 6 6 6 7 7 6 6 6 6 6 7 7 8 8 8 9 10 10 9 8 8 8 8 8 8 7 7 8 8 7 8 8 8 9 10
5 5 7 9 9 9 9 8 7 6 5 5 5 4 3 2 2 2 3 3 2 2 3 4 4 2 3 2 1 1 1 2 2 1 1 1 1 1 1 1 0 1 1 2 2 2 2 4 5 5 5 5 6 6 6 6 6 7 7 7 7 8 8 7 8 8 7 8 9 10 9 8 8 8 8 8 8 8 8 9 9 8 8 9 9 10 11
5 6 7 7 6 7 7 6 5 5 4 3 3 2 2 1 1 1 2 1 1 1 1 3 3 3 2 2 1 0 0 1 1 1 1 1 1 1 2 2 2 2 2 1 1 1 3 4 5 5 5 5 5 5 5 6 6 6 7 8 9 10 11 11 11 9 8 8 7 7 8 8 8 9 8 9 9 9 9 9 9 9 10 10 10 11 11
7 7 6 6 5 5 5 4 3 4 3 2 1 1 1 1 1 1 1 1 1 1 2 4 5 4 2 1 1 1 1 0 0 0 1 1 1 1 1 2 2 2 2 1 0 1 3 4 5 5 5 5 5 5 5 5 5 5 5 6 7 7 9 10 10 9 9 8 8 8 8 8 8 8 9 9 9 9 9 9 9 10 10 10 10 11 12
5 6 5 5 4 4 4 3 2 3 3 2 1 0 1 1 0 1 1 1 1 1 3 4 5 4 2 1 1 1 1 1 1 1 1 2 2 1 1 2 2 1 2 2 2 3 4 5 5 5 5 5 5 5 4 4 4 4 5 5 5 6 6 7 7 7 8 8 9 9 8 7 7 7 8 8 8 8 8 9 9 9 9 9 9 10 12
3 4 4 4 3 3 3 3 2 2 2 2 1 1 2 2 2 1 1 1 1 1 1 3 3 2 2 1 1 2 1 1 1 1 1 2 3 3 3 3 1 2 3 3 3 4 6 6 5 6 6 6 5 5 4 4 3 3 4 5 5 5 4 4 4 5 6 7 7 8 8 8 7 7 7 7 7 7 7 8 8 8 8 8 8 9 11
3 4 4 4 5 5 5 4 3 2 2 2 2 3 3 3 3 2 1 0 1 1 2 2 2 2 2 1 1 2 1 1 3 3 2 2 4 4 4 3 2 3 4 4 4 5 7 7 7 6 6 6 6 5 4 4 4 3 4 5 5 4 4 3 3 3 4 5 5 6 7 8 8 7 6 6 6 7 7 7 7 8 8 9 8 8 10
4 3 4 6 6 5 5 5 5 4 3 2 3 4 4 4 4 3 2 2 2 2 3 3 3 2 2 1 1 1 1 1 2 2 2 2 2 3 4 3 3 4 5 5 6 7 8 8 9 9 7 6 5 5 4 4 4 4 5 5 5 4 4 4 4 3 3 3 4 5 6 7 8 7 6 6 6 6 6 5 6 7 8 9 9 9 9
4 3 4 6 5 4 5 6 6 4 4 4 4 4 4 5 4 3 3 3 3 3 3 3 4 3 2 1 1 2 2 1 1 2 2 2 2 3 4 4 4 5 5 6 7 9 9 9 10 11 8 6 5 5 5 5 5 5 5 6 6 5 5 5 4 3 2 2 3 4 5 5 5 6 6 5 5 5 5 5 5 6 7 8 9 9 10
3 2 4 6 5 4 6 6 5 4 3 4 4 3 3 4 3 3 3 4 4 4 3 4 5 4 2 2 3 3 3 3 4 4 3 3 3 4 4 5 5 4 3 3 6 9 11 11 11 10 8 7 6 5 5 5 6 6 6 6 7 6 5 5 4 3 2 2 2 2 3 3 3 4 4 5 4 4 5 5 4 4 5 6 7 8 9
4 4 5 5 5 5 6 6 5 4 3 2 2 3 3 3 3 3 4 4 5 4 4 6 6 5 3 3 3 3 3 4 5 5 5 5 6 6 6 7 5 4 4 4 5 8 11 12 11 9 8 7 7 6 5 5 5 5 5 6 7 6 6 6 5 4 3 2 2 1 1 1 2 2 3 3 3 3 3 4 4 4 4 5 5 6 7
5 5 6 5 4 4 4 3 3 3 2 1 1 2 3 4 4 4 4 5 5 5 5 6 6 5 4 3 2 1 0 1 3 5 6 7 7 8 8 6 3 3 6 7 6 7 11 14 13 9 7 8 7 7 6 6 4 4 4 5 6 6 6 6 5 5 4 3 3 2 2 1 1 1 1 2 2 2 1 2 3 4 4 4 4 5 5
5 5 4 3 3 3 2 2 1 0 1 2 2 3 3 4 4 4 4 4 5 6 6 7 7 6 4 3 2 1 1 2 2 3 4 5 6 6 6 2 1 1 3 5 6 8 12 15 13 9 8 8 9 9 8 7 5 5 5 5 5 6 5 5 6 5 4 4 4 3 3 2 2 1 1 1 1 1 1 1 1 2 3 3 3 4 4
5 4 2 2 2 2 2 2 3 4 3 3 3 4 4 5 5 4 4 3 4 5 6 7 8 8 6 4 4 4 4 4 3 4 5 6 5 5 5 1 1 1 2 4 6 8 11 13 13 11 9 9 10 11 11 9 7 6 5 5 6 6 6 6 6 6 5 5 5 4 3 3 3 2 2 1 1 0 1 1 2 1 1 2 2 2 3
4 3 1 1 1 1 2 2 3 3 3 2 2 3 4 5 5 5 5 4 5 5 6 6 8 10 9 8 7 7 6 5 5 5 6 6 6 6 5 3 2 3 5 5 6 8 9 10 12 13 12 11 11 12 12 10 8 7 6 6 6 6 6 6 6 6 6 5 5 5 4 4 4 3 3 3 2 1 1 2 2 2 1 1 1 1 2
2 1 0 1 1 1 2 2 2 3 2 2 1 2 3 5 5 6 6 5 5 6 6 6 7 8 9 9 9 8 7 6 5 5 5 5 5 6 5 4 4 6 7 7 8 9 9 9 10 13 15 16 15 13 12 11 9 8 7 7 7 7 7 7 7 7 7 6 5 5 4 4 4 4 4 4 4 2 2 2 3 3 3 2 2 1 1
2 2 1 1 1 2 2 2 2 3 2 2 3 4 5 6 6 6 6 6 6 6 6 6 6 7 8 9 9 8 7 6 5 4 5 5 3 2 3 4 5 6 6 6 8 9 9 9 11 13 14 16 18 16 12 11 11 9 8 8 7 7 7 7 7 7 7 6 5 5 4 4 4 4 4 4 4 4 3 2 3 4 4 3 3 2 2
1 2 2 3 4 4 3 2 3 3 3 4 5 5 5 6 7 7 7 8 8 7 7 6 6 6 7 7 8 8 7 7 6 6 6 6 4 2 2 4 6 7 7 7 7 8 8 11 14 14 12 14 17 16 13 11 11 11 9 8 8 7 7 7 7 7 7 6 6 5 4 3 3 4 4 4 5 5 4 3 3 3 4 4 4 4 3
0 1 2 3 3 3 3 2 3 4 5 5 6 5 4 4 5 6 7 7 8 8 8 7 7 6 6 7 7 8 8 8 8 7 6 6 5 5 6 7 8 8 8 8 7 7 8 10 12 12 12 13 15 15 12 11 11 11 10 9 8 7 7 7 7 7 7 7 6 5 5 4 4 4 4 5 5 5 5 5 4 4 3 4 4 4 4
0 1 1 1 2 3 3 4 5 6 6 6 6 5 4 4 4 6 7 7 8 9 9 8 8 8 7 7 8 8 8 8 8 6 4 4 5 6 6 7 7 7 7 7 8 8 8 8 9 10 11 13 14 13 11 11 12 11 10 9 9 8 8 8 8 8 8 7 7 6 6 6 5 5 5 5 5 6 6 6 6 5 5 4 5 5 5
1 0 0 1 2 3 4 5 6 6 6 6 7 6 5 5 6 7 7 7 8 9 9 9 9 9 8 8 8 8 9 9 9 8 6 5 6 6 6 6 7 7 7 7 7 7 7 6 7 9 11 13 13 12 11 11 11 11 10 9 9 9 9 8 8 8 8 8 8 8 8 8 7 6 6 6 6 6 6 6 7 7 7 7 5 5 5
1 1 1 2 1 2 3 4 5 5 5 5 6 6 5 5 7 7 7 7 7 8 9 9 9 9 9 8 8 8 8 8 9 9 8 7 7 7 6 6 8 9 8 7 7 6 6 6 7 9 11 12 12 10 10 10 11 11 11 10 10 10 10 10 9 9 9 8 9 9 9 9 9 8 7 7 7 6 6 7 7 8 9 9 8 6 6
2 3 2 2 2 2 3 4 4 5 5 5 5 5 5 6 8 8 7 7 7 9 9 9 9 9 9 8 8 8 8 8 8 7 7 6 6 5 5 5 8 10 10 9 8 6 6 6 7 9 11 12 11 10 10 11 11 10 10 10 10 10 10 10 10 10 9 8 8 9 9 10 10 10 9 9 9 8 7 7 7 8 9 9 9 8 7
3 3 3 3 3 3 4 4 4 4 5 5 6 6 7 7 8 8 6 6 7 9 9 9 9 8 8 8 8 7 7 7 8 8 7 6 5 4 4 4 5 7 9 9 8 7 6 7 7 8 10 11 10 9 10 11 11 11 10 10 10 11 10 10 9 9 8 7 8 8 9 10 10 10 10 10 10 9 9 9 8 8 9 9 10 9 9
Wind_Direction
30 23 36 55 73 89 87 79 66 44 41 22 234 246 333 323 259 225 160 141 134 131 130 119 112 113 109 104 96 90 88 83 82 83 81 78 72 70 71 70 69 68 64 62 58 53 54 57 57 56 57 61 73 82 83 86 92 103 122 135 134 130 134 147 167 184 188 184 190 199 196 190 184 170 161 158 154 152 153 160 168 170 170 172 173 174 172
30 23 30 51 111 112 92 70 55 47 55 58 47 20 358 326 280 149 137 124 104 103 114 104 102 106 102 100 96 88 81 74 75 80 79 74 63 59 63 65 67 64 58 58 58 52 49 49 55 58 56 51 51 61 73 78 82 93 111 118 115 113 119 134 155 172 178 180 185 187 183 182 181 175 167 160 159 159 152 147 155 157 159 166 168 172 179
73 23 41 75 149 129 103 76 51 39 63 64 47 31 10 354 103 117 124 116 96 88 105 106 112 115 104 95 86 82 75 66 70 76 78 75 67 64 65 64 64 61 52 49 50 50 48 48 52 55 58 59 55 57 68 77 84 93 99 100 103 108 114 126 141 157 169 172 169 171 172 172 172 170 163 151 147 155 156 153 157 159 162 171 173 179 189
149 158 160 151 161 149 122 85 46 26 48 72 55 48 7 329 139 139 142 136 128 130 119 111 107 103 98 88 79 78 74 67 67 70 72 72 69 67 63 60 59 54 49 47 45 46 47 50 52 54 57 61 59 60 69 78 88 95 91 87 90 97 106 119 130 139 154 160 158 163 168 169 171 171 163 149 131 129 147 154 159 171 180 181 182 190 200
157 158 160 150 170 182 155 80 31 10 20 64 76 69 19 342 194 161 164 133 129 134 128 115 102 91 84 78 74 78 78 75 72 71 70 69 68 66 63 62 61 53 47 46 46 47 48 50 54 57 60 63 61 62 69 76 84 88 85 82 85 88 92 104 122 132 138 143 149 159 167 169 172 173 168 167 170 175 191 181 176 209 208 193 193 200 206
158 150 156 164 193 202 175 48 17 13 24 44 80 71 30 9 31 84 84 109 128 135 129 118 108 97 86 79 74 71 75 80 79 74 70 67 67 66 62 63 63 57 50 45 46 50 49 47 52 60 64 67 70 71 74 77 78 77 77 79 85 90 88 84 95 114 124 129 134 143 154 156 160 163 160 167 181 197 214 204 198 223 214 205 206 206 205
147 147 171 193 202 179 79 43 23 24 36 61 83 74 42 32 63 93 102 116 125 122 115 111 110 104 94 82 73 68 67 73 80 79 72 68 66 64 61 61 59 55 50 44 44 48 48 45 50 57 59 64 69 70 71 74 74 74 77 77 77 84 87 81 81 92 105 115 119 127 136 137 144 155 156 164 181 191 193 187 187 195 200 205 210 208 204
149 165 190 197 129 105 104 44 17 8 2 39 82 84 47 29 51 109 117 117 112 113 114 112 113 111 99 81 67 64 64 65 73 78 76 72 68 63 62 62 60 56 50 44 42 44 47 51 55 55 55 62 67 65 64 68 69 72 76 72 65 69 78 80 84 91 97 102 104 111 123 124 125 136 140 148 162 167 162 163 168 174 178 184 193 197 194
183 156 117 110 131 136 127 74 37 15 350 343 333 65 54 27 36 124 129 126 119 120 120 119 124 118 99 79 59 56 62 64 67 72 74 75 73 70 67 65 62 59 55 53 53 52 51 54 58 60 59 65 69 65 60 63 65 66 68 65 61 64 67 68 77 88 96 98 95 95 104 108 105 108 115 123 132 135 136 139 146 150 143 144 159 160 160
234 154 124 137 167 153 96 66 47 7 339 323 298 268 87 66 106 135 139 134 128 131 132 134 145 134 93 77 62 57 66 73 73 71 71 70 69 68 66 62 59 57 57 60 64 65 58 53 61 68 65 67 71 67 58 56 60 62 62 60 62 67 66 66 74 84 92 94 91 87 90 95 97 99 104 111 114 115 117 118 122 129 127 130 141 141 142
191 200 175 160 145 100 64 29 6 348 337 314 269 239 153 126 136 142 141 134 131 136 138 135 151 142 106 100 83 65 69 75 77 77 76 73 70 66 61 58 59 62 66 69 69 66 58 51 60 69 68 67 70 66 57 54 56 58 58 57 60 63 64 67 75 82 87 90 90 89 89 92 95 94 97 106 110 107 104 105 102 103 111 117 119 116 109
189 212 181 98 73 72 36 358 344 340 331 286 243 226 118 119 140 141 133 128 125 121 115 92 49 63 107 115 102 87 85 81 77 80 82 79 76 73 67 64 66 68 69 70 66 59 51 48 55 62 64 67 68 64 59 58 56 53 53 54 57 59 59 62 68 74 79 83 86 88 90 93 95 94 97 106 112 111 110 112 109 105 104 105 104 103 98
186 197 144 101 84 52 9 345 333 329 307 246 233 334 84 122 138 137 126 122 116 93 73 72 66 65 84 96 97 95 94 89 81 81 84 82 80 80 76 72 73 70 66 64 61 53 45 44 49 51 55 63 65 61 60 59 54 48 48 52 56 59 59 59 60 62 67 71 76 78 81 85 88 90 94 100 105 106 109 112 112 109 105 101 102 104 102
38 192 140 117 109 47 352 330 318 322 305 221 46 14 112 133 133 131 124 116 109 93 84 94 100 97 97 100 101 94 87 88 87 88 92 92 88 84 79 77 78 76 70 64 61 55 45 41 43 47 52 57 59 57 57 55 51 47 47 51 57 61 64 65 62 59 60 63 65 64 63 69 76 80 83 87 89 94 100 101 101 101 102 101 99 99 96
39 108 110 111 111 30 351 334 321 355 359 7 2 13 125 124 122 127 123 114 110 105 102 103 105 108 111 111 110 105 95 93 90 85 89 94 95 93 87 83 82 80 76 69 61 55 48 42 41 44 52 56 57 55 54 51 47 46 45 46 50 54 60 64 63 61 63 66 69 66 61 60 65 68 69 69 71 76 86 94 97 97 101 107 107 102 98
354 90 79 50 23 2 356 356 12 14 2 341 315 341 122 119 121 127 121 115 117 115 115 117 117 118 121 121 120 118 112 109 103 92 89 93 96 97 94 89 84 81 79 76 69 62 54 48 46 47 52 57 57 54 50 45 41 43 44 45 48 49 50 53 54 57 62 65 67 68 66 60 57 57 59 60 60 60 61 71 83 85 87 98 106 106 102
55 67 65 48 30 17 18 28 34 27 31 30 29 71 98 101 105 118 118 117 119 119 121 124 125 126 128 128 128 125 120 116 111 105 100 97 95 94 93 91 88 84 83 84 82 76 67 58 55 52 52 55 55 51 46 42 41 42 43 45 51 52 51 51 51 54 59 59 58 57 56 56 54 52 52 53 53 53 53 55 60 63 63 67 73 77 77
91 69 54 52 50 44 44 49 48 47 49 48 52 67 72 65 79 98 107 112 117 123 126 126 125 126 126 123 121 120 119 116 112 109 106 102 98 96 90 84 84 85 87 85 79 73 66 58 55 53 49 50 51 46 41 40 43 47 51 53 54 54 55 57 56 57 60 60 58 56 53 54 54 51 50 51 49 48 50 49 49 49 46 45 47 48 45
115 61 44 47 55 56 56 61 63 61 58 54 54 58 55 57 75 86 92 101 110 115 119 122 124 125 126 126 123 121 122 121 120 117 111 103 97 91 81 72 69 71 75 74 69 64 58 50 45 44 42 42 42 40 40 42 47 53 56 56 58 59 62 63 61 61 64 63 63 62 58 56 58 55 52 54 53 49 45 41 42 44 43 40 36 32 28
89 82 74 68 65 65 63 64 66 65 68 70 69 66 58 54 63 71 76 85 95 100 104 110 116 120 124 128 129 127 125 124 122 117 111 104 97 89 79 72 71 70 71 73 68 62 57 49 43 39 37 36 35 34 38 43 50 59 60 61 67 71 71 70 68 66 67 68 69 69 64 59 57 54 52 54 55 52 46 39 36 35 33 33 28 17 11
97 104 108 98 80 69 63 65 70 72 78 82 79 74 68 60 59 62 60 58 62 72 82 91 102 110 117 122 127 128 125 123 121 118 116 111 102 95 89 83 82 82 81 79 72 66 59 50 45 44 43 42 40 38 43 48 55 64 69 72 77 77 76 76 75 73 72 71 73 77 76 70 66 65 68 73 71 64 58 56 56 50 38 31 22 6 355
95 103 118 112 91 78 72 79 88 90 91 91 87 81 78 76 77 79 71 59 56 56 58 71 89 98 100 110 118 118 116 118 119 117 116 107 96 94 96 94 91 89 85 80 72 65 60 52 49 52 53 53 50 48 51 55 61 74 84 85 80 77 77 75 74 76 78 75 74 78 83 81 77 75 76 82 88 86 76 66 64 64 61 54 44 32 15
92 99 104 100 97 101 105 108 110 111 109 104 101 103 107 110 111 112 112 107 99 87 79 99 116 119 116 116 116 110 109 112 113 108 101 93 86 83 83 86 86 84 81 75 65 58 53 47 49 57 60 59 59 56 53 55 62 76 86 85 79 77 76 70 63 68 74 73 70 72 73 75 82 86 83 78 76 74 74 69 63 59 58 54 49 46 42
102 100 97 96 99 104 108 109 110 113 114 111 110 113 120 126 128 126 124 122 125 131 134 127 123 125 126 121 114 112 114 112 108 102 93 86 82 74 69 74 78 78 70 59 52 49 44 41 48 61 66 65 64 60 57 62 72 79 80 80 78 79 78 70 61 62 67 67 64 64 62 60 60 64 76 81 70 58 59 66 67 61 55 49 42 35 31
101 97 95 96 98 101 105 104 101 102 107 111 115 120 126 130 132 129 123 121 127 135 137 124 106 109 120 120 121 129 134 130 125 122 113 103 96 83 75 73 73 73 63 48 44 44 40 42 55 70 74 73 71 69 71 79 85 87 82 74 70 73 76 71 65 63 62 59 59 58 55 53 51 46 47 55 55 46 44 52 58 55 47 42 38 30 22
102 103 102 101 101 105 109 106 100 98 101 106 112 119 127 135 139 131 125 127 129 131 134 132 121 117 120 120 126 138 141 141 148 156 140 121 110 91 79 72 71 74 65 48 46 48 43 48 69 82 83 84 82 79 85 92 93 92 84 72 66 70 71 65 61 61 57 53 54 54 50 49 49 47 45 43 40 39 37 35 37 36 30 24 21 21 23
103 105 106 106 103 97 95 97 101 102 102 103 107 112 118 126 128 121 118 118 117 116 119 123 125 127 126 124 127 131 130 141 159 170 135 101 91 79 76 79 82 83 70 52 52 57 53 66 92 95 93 95 92 92 98 101 99 96 90 79 74 74 68 60 56 56 52 48 48 49 48 48 46 44 44 42 37 34 32 26 18 15 20 14 2 2 16
91 81 85 94 96 95 95 99 105 105 102 100 103 109 117 120 116 111 110 113 118 118 117 117 120 122 123 124 128 129 133 151 167 160 109 91 85 79 84 94 94 88 72 57 59 66 73 97 110 107 104 105 103 103 107 107 104 100 94 89 87 79 65 58 58 57 54 52 52 51 50 48 48 47 44 41 40 35 29 25 17 10 17 17 2 359 10
77 71 80 88 97 107 112 111 111 110 108 108 110 114 119 116 108 101 99 107 125 131 130 133 135 124 116 120 120 115 123 139 141 97 94 90 84 79 84 98 105 104 88 70 70 83 104 125 127 121 117 118 117 114 111 110 108 99 90 88 89 81 67 61 62 61 60 58 57 57 54 48 45 47 44 41 41 38 32 30 24 16 18 20 13 10 10
80 91 101 102 110 119 117 111 111 112 116 123 124 123 116 96 82 84 90 104 138 151 141 153 163 157 144 150 141 60 44 15 3 11 32 52 59 49 26 9 194 159 106 77 73 90 120 136 135 131 128 129 128 122 117 114 109 99 90 85 83 81 79 75 69 65 65 62 56 54 54 50 46 44 41 38 38 38 36 34 28 23 24 21 16 17 10
95 104 114 118 122 117 108 104 110 115 119 130 133 133 143 136 31 59 92 117 243 263 213 202 211 212 196 189 192 211 326 335 341 341 350 17 17 346 336 321 315 334 3 30 62 109 141 146 142 138 137 134 132 127 123 119 114 106 97 93 91 88 84 80 73 66 65 66 62 57 55 54 50 46 41 39 38 37 36 35 30 26 25 22 20 21 9
116 118 127 131 129 120 112 113 119 116 118 133 139 136 156 183 346 21 39 354 309 278 244 235 233 230 219 212 212 211 219 272 326 242 286 288 274 299 314 313 323 329 315 287 223 179 174 165 156 150 146 142 138 135 130 128 125 121 113 111 111 101 88 80 75 70 65 63 64 63 60 57 55 51 45 41 41 38 36 34 32 29 25 25 25 19 8
133 129 138 142 138 132 127 126 121 106 104 116 108 53 119 169 208 22 26 358 321 273 243 234 230 228 215 192 189 182 172 196 194 179 256 293 277 227 253 280 293 273 246 238 226 204 190 179 171 166 163 159 152 148 145 141 136 135 134 134 131 120 103 91 86 78 69 64 64 64 60 55 54 54 51 45 42 41 39 36 33 31 28 29 32 24 17
81 85 114 130 120 104 109 122 123 108 109 124 139 145 157 167 164 113 39 348 328 310 233 210 203 194 170 151 153 150 153 262 296 29 38 286 260 247 256 269 263 227 225 230 225 207 193 184 180 176 174 175 171 163 161 161 154 150 153 155 154 149 134 114 100 84 69 65 68 66 59 54 52 53 55 52 46 45 45 40 36 36 33 31 35 30 24
85 79 108 127 118 103 102 110 108 97 100 121 135 143 153 157 147 133 129 148 69 81 111 137 144 143 147 156 175 165 166 316 337 356 345 283 263 255 254 253 234 226 226 225 221 207 195 190 189 185 181 185 186 181 181 187 187 183 176 168 168 171 168 150 124 104 84 73 70 63 58 60 60 56 56 58 53 50 50 45 40 41 41 38 38 34 25
148 138 140 142 135 120 110 107 100 90 83 93 113 129 141 150 156 153 151 149 137 120 117 128 142 163 188 195 195 207 252 328 341 333 309 289 258 243 245 242 233 229 230 230 223 208 197 197 200 197 193 193 195 196 202 207 208 207 200 192 188 180 171 165 151 127 106 87 76 73 73 75 70 60 57 62 59 52 51 51 48 47 46 44 44 42 35
148 155 152 147 141 127 113 106 97 88 90 99 107 120 137 151 159 155 144 151 154 145 141 157 172 183 201 222 241 256 269 270 263 278 294 292 255 244 249 244 228 221 227 231 216 200 196 200 202 200 201 204 200 195 200 210 216 215 205 200 202 192 177 178 180 159 134 115 99 96 92 82 67 56 54 60 60 54 51 52 53 52 49 47 47 47 47
140 135 139 139 135 124 114 106 91 82 100 117 121 124 137 150 161 159 158 165 166 161 166 179 184 187 200 233 246 246 243 244 257 269 278 279 271 260 253 247 234 220 224 226 202 194 198 203 200 198 206 212 201 189 192 206 217 217 207 203 206 202 193 197 206 197 178 166 143 120 97 72 58 52 52 56 59 60 57 53 52 54 52 49 47 48 50
147 143 140 141 142 136 127 116 98 86 97 123 136 139 148 162 174 176 175 175 175 177 182 186 191 199 215 235 246 242 232 245 266 276 277 279 281 279 275 269 258 245 248 244 213 197 199 199 196 199 210 211 200 190 188 195 203 205 200 200 203 204 204 207 209 207 207 205 188 163 131 90 64 52 50 51 54 65 70 63 58 56 52 49 49 49 51
134 143 146 148 153 153 149 138 109 96 101 157 191 172 171 179 185 191 193 186 183 192 200 203 208 220 229 237 263 293 279 252 270 280 280 276 274 276 281 282 268 240 240 231 210 199 199 197 195 202 212 209 201 193 190 195 204 204 199 199 200 203 210 216 218 222 225 215 199 195 201 193 128 75 64 49 47 65 92 81 65 57 51 50 53 52 50
109 130 145 156 168 173 178 193 237 296 224 227 216 203 198 200 204 215 218 203 192 199 209 215 226 239 244 237 243 278 304 275 262 263 264 260 259 267 278 285 112 169 232 210 197 205 206 200 198 206 216 210 203 199 199 208 220 217 209 209 212 213 217 225 231 236 236 226 218 218 219 219 217 193 147 39 31 57 106 117 92 70 55 53 56 56 55
94 111 132 159 187 208 230 262 281 285 276 245 214 205 208 215 221 228 233 226 216 216 219 222 229 239 245 241 235 240 253 261 258 251 250 254 264 281 296 311 126 182 228 201 196 205 206 201 204 214 220 215 209 203 202 209 220 224 223 225 227 227 231 236 238 239 239 239 243 243 234 230 234 229 217 226 249 112 129 157 165 151 89 64 64 63 62
84 88 99 127 141 276 279 276 279 280 267 233 204 202 210 217 226 234 242 240 234 233 235 230 226 227 230 233 238 244 248 249 250 251 255 257 261 270 281 292 270 252 248 225 207 208 209 208 212 216 216 215 214 210 208 213 222 229 231 232 233 235 239 243 246 245 242 244 250 248 237 233 236 229 218 221 223 199 166 177 184 179 158 123 103 90 85
108 119 158 95 66 320 288 272 273 278 270 247 219 216 220 227 232 241 248 248 241 241 247 244 233 226 225 227 234 244 249 244 237 241 253 259 248 235 230 235 247 254 250 231 217 219 222 220 218 219 218 216 214 212 213 219 226 230 233 235 237 241 243 246 247 245 242 244 247 241 231 231 235 229 217 215 215 209 196 188 187 187 183 177 167 150 148
198 221 246 267 276 279 283 292 304 310 308 287 264 247 245 248 247 246 249 250 245 243 250 255 250 239 229 226 231 241 249 251 247 250 265 277 269 206 179 197 221 236 241 230 225 230 233 227 224 227 227 222 217 215 218 224 226 228 233 236 238 242 246 246 241 237 236 239 237 228 223 228 233 225 211 203 204 206 204 192 185 187 193 197 198 198 195
209 221 233 246 255 263 274 294 305 305 298 283 267 255 252 256 256 251 249 248 246 246 252 260 260 251 237 231 233 237 237 239 241 244 257 275 286 275 234 237 236 237 242 240 231 233 240 238 233 232 229 221 216 216 220 224 224 225 230 236 238 240 242 239 232 229 231 230 225 223 227 235 233 222 209 201 202 204 205 205 203 198 196 199 204 206 208
203 235 240 250 257 254 243 247 260 265 266 269 269 267 264 262 259 255 249 247 248 252 254 256 260 258 245 233 232 233 232 234 236 234 238 248 251 241 241 249 250 250 253 250 239 236 247 248 240 232 223 214 211 212 217 222 222 223 228 233 234 235 237 232 226 226 228 226 224 228 236 239 238 228 215 208 207 207 208 214 219 214 203 201 205 208 210
16 281 271 271 267 254 241 243 256 264 267 267 271 275 277 272 264 257 252 249 250 252 250 249 252 256 249 235 231 233 237 244 250 250 242 235 230 224 225 234 241 245 247 246 244 249 257 253 238 224 215 209 207 210 218 222 221 221 226 230 231 232 232 229 226 226 226 224 226 232 236 236 237 233 222 217 217 215 213 216 221 222 219 217 215 214 214
71 47 262 240 247 256 257 257 261 268 271 270 268 270 273 271 264 258 254 252 253 254 253 250 248 247 246 243 239 236 237 242 249 257 259 251 243 239 235 231 233 237 235 230 234 249 259 250 230 218 210 204 204 211 220 221 219 220 226 232 233 232 230 228 229 231 231 231 235 241 243 243 244 240 232 229 228 221 216 218 222 223 224 223 220 217 217
160 224 252 261 273 291 290 283 283 287 288 281 276 273 269 268 270 270 267 263 261 260 259 256 250 243 240 241 243 243 242 241 244 251 258 257 251 248 245 235 233 236 230 215 211 230 247 241 226 215 206 201 204 214 221 221 219 222 228 234 236 235 233 233 236 239 239 240 244 246 247 248 250 246 240 236 233 227 221 221 224 226 227 227 225 224 222
259 265 281 304 318 316 307 304 305 305 299 290 286 281 273 271 276 280 278 273 271 268 264 261 256 247 240 238 239 242 244 243 240 241 246 248 249 252 251 239 236 236 230 216 205 209 219 220 219 215 207 203 207 218 223 223 225 228 232 235 238 237 235 235 238 238 236 238 245 249 250 249 247 243 237 234 231 227 224 223 224 226 228 226 224 224 223
263 271 279 281 281 284 289 291 293 293 290 285 281 279 276 275 278 280 275 269 269 268 265 262 259 252 244 242 243 243 243 245 245 243 240 238 241 250 256 250 240 233 224 213 205 199 195 200 212 217 210 206 210 221 224 224 228 233 237 238 238 235 233 233 233 232 233 239 248 252 252 248 243 237 234 231 226 222 222 224 225 225 224 222 220 219 219